Location: Bothwell
(41.7170°N, 112.2589°W)
Time: 02:43:11
(UTC+00:00)

Tiros 1 - Pass Details

Date: 16 May 2026
Orbit: 618 x 649 km, 48.4° (Epoch: 6 June)

Event Time Altitude Azimuth Distance (km) Brightness Sun altitude
Rises 09:17:22 0° 281° (WNW) 2,909 - -23.9°
Reaches altitude 10° 09:19:52 10° 291° (WNW) 1,997 - -23.6°
Exits shadow 09:20:27 13° 294° (WNW) 1,796 9.4 -23.6°
Maximum altitude 09:24:05 35° 357° (N) 1,008 8.6 -23.2°
Drops below altitude 10° 09:28:17 10° 64° (ENE) 1,984 10.4 -22.8°
Sets 09:30:45 0° 74° (ENE) 2,888 11.2 -22.6°
